Terminal Aerodrome Forecast
Issued by NWS Billings, MT

Home | Current Version | Previous Version | Graphics & Text | Print | Product List | Glossary On
Versions: 1 2 3 4 5 6 7 8 9 10 11 12 13 14 15 16 17 18 19 20 21 22 23 24 25 26 27 28 29 30 31 32 33 34
000
FTUS45 KBYZ 291505 AAA
TAFMLS
TAF AMD
KMLS 291505Z 2915/3012 32012KT P6SM SCT010 BKN020
     FM291700 32014KT P6SM SCT010 BKN040
     FM291900 07014KT P6SM FEW040 SCT100=

USA.gov is the U.S. government's official web portal to all federal, state and local government web resources and services.